Time,TemperatureF,DewpointF,PressureIn,WindDirection,WindDirectionDegrees,WindSpeedMPH,WindSpeedGustMPH,Humidity,HourlyPrecipIn,Conditions,Clouds,dailyrainin,SoftwareType,DateUTC
2013-05-15 00:12:00,55.9,47.0,29.93,WNW,292,10.0,-999.0,73,-99.99,,,0.00,weatherlink.com 1.10,2013-05-15 04:12:00,
2013-05-15 00:27:00,55.9,48.0,29.94,West,275,7.0,-999.0,74,-99.99,,,0.00,weatherlink.com 1.10,2013-05-15 04:27:00,
2013-05-15 00:42:00,56.3,48.0,29.94,WNW,289,10.0,-999.0,73,-99.99,,,0.00,weatherlink.com 1.10,2013-05-15 04:42:00,
2013-05-15 00:57:00,56.3,48.0,29.95,WNW,302,3.0,-999.0,73,-99.99,,,0.00,weatherlink.com 1.10,2013-05-15 04:57:00,
2013-05-15 01:12:00,56.0,48.0,29.95,WNW,290,3.0,-999.0,74,-99.99,,,0.00,weatherlink.com 1.10,2013-05-15 05:12:00,
2013-05-15 01:27:00,56.3,48.0,29.93,SW,217,4.0,-999.0,73,-99.99,,,0.00,weatherlink.com 1.10,2013-05-15 05:27:00,
2013-05-15 01:42:00,56.7,48.0,29.93,SW,215,3.0,-999.0,72,-99.99,,,0.00,weatherlink.com 1.10,2013-05-15 05:42:00,
2013-05-15 01:57:00,56.0,48.0,29.91,WSW,244,9.0,-999.0,75,-99.99,,,0.00,weatherlink.com 1.10,2013-05-15 05:57:00,
2013-05-15 02:13:00,55.6,48.0,29.92,SW,235,10.0,-999.0,76,-99.99,,,0.00,weatherlink.com 1.10,2013-05-15 06:13:00,
2013-05-15 02:28:00,55.6,49.0,29.92,WSW,241,19.0,-999.0,77,-99.99,,,0.00,weatherlink.com 1.10,2013-05-15 06:28:00,
2013-05-15 02:43:00,55.4,48.0,29.92,WSW,244,6.0,-999.0,77,-99.99,,,0.00,weatherlink.com 1.10,2013-05-15 06:43:00,
2013-05-15 02:58:00,55.6,48.0,29.93,North,5,1.0,-999.0,76,-99.99,,,0.00,weatherlink.com 1.10,2013-05-15 06:58:00,
2013-05-15 03:13:00,55.6,48.0,29.94,WSW,245,3.0,-999.0,76,-99.99,,,0.00,weatherlink.com 1.10,2013-05-15 07:13:00,
2013-05-15 03:28:00,55.4,48.0,29.93,WSW,249,4.0,-999.0,77,-99.99,,,0.00,weatherlink.com 1.10,2013-05-15 07:28:00,
2013-05-15 03:43:00,55.3,48.0,29.94,SE,131,2.0,-999.0,77,-99.99,,,0.00,weatherlink.com 1.10,2013-05-15 07:43:00,
2013-05-15 03:58:00,55.1,48.0,29.94,North,355,2.0,-999.0,77,-99.99,,,0.00,weatherlink.com 1.10,2013-05-15 07:58:00,
2013-05-15 04:13:00,55.0,48.0,29.94,East,101,3.0,-999.0,77,-99.99,,,0.00,weatherlink.com 1.10,2013-05-15 08:13:00,
2013-05-15 04:28:00,55.6,48.0,29.94,SW,215,5.0,-999.0,75,-99.99,,,0.00,weatherlink.com 1.10,2013-05-15 08:28:00,
2013-05-15 04:43:00,55.7,48.0,29.94,SSW,205,10.0,-999.0,74,-99.99,,,0.00,weatherlink.com 1.10,2013-05-15 08:43:00,
2013-05-15 04:58:00,56.0,47.0,29.94,WNW,301,3.0,-999.0,72,-99.99,,,0.00,weatherlink.com 1.10,2013-05-15 08:58:00,
2013-05-15 05:13:00,56.3,47.0,29.95,WSW,250,5.0,-999.0,71,-99.99,,,0.00,weatherlink.com 1.10,2013-05-15 09:13:00,
2013-05-15 05:28:00,56.5,47.0,29.95,WSW,243,11.0,-999.0,70,-99.99,,,0.00,weatherlink.com 1.10,2013-05-15 09:28:00,
2013-05-15 05:43:00,57.3,46.0,29.95,West,271,4.0,-999.0,66,-99.99,,,0.00,weatherlink.com 1.10,2013-05-15 09:43:00,
2013-05-15 05:58:00,57.2,46.0,29.94,SW,223,10.0,-999.0,67,-99.99,,,0.00,weatherlink.com 1.10,2013-05-15 09:58:00,
2013-05-15 06:13:00,57.8,46.0,29.96,WSW,251,3.0,-999.0,65,-99.99,,,0.00,weatherlink.com 1.10,2013-05-15 10:13:00,
2013-05-15 06:28:00,58.0,46.0,29.96,SW,223,12.0,-999.0,64,-99.99,,,0.00,weatherlink.com 1.10,2013-05-15 10:28:00,
2013-05-15 06:43:00,57.5,46.0,29.96,SW,228,10.0,-999.0,66,-99.99,,,0.00,weatherlink.com 1.10,2013-05-15 10:43:00,
2013-05-15 06:58:00,57.3,46.0,29.97,SSW,200,10.0,-999.0,67,-99.99,,,0.00,weatherlink.com 1.10,2013-05-15 10:58:00,
2013-05-15 07:13:00,57.6,46.0,29.97,WSW,238,9.0,-999.0,66,-99.99,,,0.00,weatherlink.com 1.10,2013-05-15 11:13:00,
2013-05-15 07:28:00,58.3,47.0,29.99,SW,217,6.0,-999.0,66,-99.99,,,0.00,weatherlink.com 1.10,2013-05-15 11:28:00,
2013-05-15 07:43:00,58.6,48.0,29.99,SW,232,9.0,-999.0,67,-99.99,,,0.00,weatherlink.com 1.10,2013-05-15 11:43:00,
2013-05-15 07:58:00,58.7,48.0,29.99,SW,233,5.0,-999.0,68,-99.99,,,0.00,weatherlink.com 1.10,2013-05-15 11:58:00,
2013-05-15 08:13:00,60.5,48.0,30.00,SW,230,10.0,-999.0,63,-99.99,,,0.00,weatherlink.com 1.10,2013-05-15 12:13:00,
2013-05-15 08:28:00,61.6,48.0,29.99,West,262,4.0,-999.0,61,-99.99,,,0.00,weatherlink.com 1.10,2013-05-15 12:28:00,
2013-05-15 08:43:00,62.4,48.0,30.00,SW,219,13.0,-999.0,59,-99.99,,,0.00,weatherlink.com 1.10,2013-05-15 12:43:00,
2013-05-15 09:13:00,64.2,49.0,30.00,ENE,61,1.0,-999.0,58,-99.99,,,0.00,weatherlink.com 1.10,2013-05-15 13:13:00,
2013-05-15 09:28:00,65.0,49.0,30.00,NW,313,5.0,-999.0,57,-99.99,,,0.00,weatherlink.com 1.10,2013-05-15 13:28:00,
2013-05-15 09:43:00,64.7,49.0,29.99,SSW,211,11.0,-999.0,58,-99.99,,,0.00,weatherlink.com 1.10,2013-05-15 13:43:00,
2013-05-15 09:58:00,65.0,49.0,29.99,WNW,302,2.0,-999.0,57,-99.99,,,0.00,weatherlink.com 1.10,2013-05-15 13:58:00,
2013-05-15 10:13:00,66.1,50.0,29.99,West,278,5.0,-999.0,56,-99.99,,,0.00,weatherlink.com 1.10,2013-05-15 14:13:00,
2013-05-15 10:28:00,66.6,50.0,30.00,North,11,4.0,-999.0,55,-99.99,,,0.00,weatherlink.com 1.10,2013-05-15 14:28:00,
2013-05-15 10:43:00,67.1,50.0,29.99,NNE,15,7.0,-999.0,55,-99.99,,,0.00,weatherlink.com 1.10,2013-05-15 14:43:00,
2013-05-15 10:58:00,68.3,50.0,29.98,WSW,257,4.0,-999.0,53,-99.99,,,0.00,weatherlink.com 1.10,2013-05-15 14:58:00,
2013-05-15 11:14:00,68.8,50.0,29.98,SSW,199,1.0,-999.0,52,-99.99,,,0.00,weatherlink.com 1.10,2013-05-15 15:14:00,
2013-05-15 11:29:00,69.8,50.0,29.97,ESE,116,2.0,-999.0,49,-99.99,,,0.00,weatherlink.com 1.10,2013-05-15 15:29:00,
2013-05-15 11:44:00,70.9,50.0,29.97,ENE,67,5.0,-999.0,48,-99.99,,,0.00,weatherlink.com 1.10,2013-05-15 15:44:00,
2013-05-15 11:59:00,70.8,49.0,29.96,NNE,22,4.0,-999.0,47,-99.99,,,0.00,weatherlink.com 1.10,2013-05-15 15:59:00,
2013-05-15 12:14:00,71.3,46.0,29.97,WSW,244,3.0,-999.0,41,-99.99,,,0.00,weatherlink.com 1.10,2013-05-15 16:14:00,
2013-05-15 12:59:00,72.7,49.0,29.94,West,270,9.0,-999.0,43,-99.99,,,0.00,weatherlink.com 1.10,2013-05-15 16:59:00,
2013-05-15 13:14:00,74.0,45.0,29.93,East,82,4.0,-999.0,35,-99.99,,,0.00,weatherlink.com 1.10,2013-05-15 17:14:00,
2013-05-15 13:29:00,74.4,47.0,29.93,SSE,151,0.0,-999.0,38,-99.99,,,0.00,weatherlink.com 1.10,2013-05-15 17:29:00,
2013-05-15 13:44:00,74.2,51.0,29.92,SE,130,3.0,-999.0,45,-99.99,,,0.00,weatherlink.com 1.10,2013-05-15 17:44:00,
2013-05-15 13:59:00,74.9,50.0,29.91,East,98,4.0,-999.0,41,-99.99,,,0.00,weatherlink.com 1.10,2013-05-15 17:59:00,
2013-05-15 14:14:00,76.1,49.0,29.90,East,81,0.0,-999.0,39,-99.99,,,0.00,weatherlink.com 1.10,2013-05-15 18:14:00,
2013-05-15 14:29:00,74.6,47.0,29.91,SW,223,5.0,-999.0,38,-99.99,,,0.00,weatherlink.com 1.10,2013-05-15 18:29:00,
2013-05-15 14:59:00,73.7,47.0,29.91,WNW,292,1.0,-999.0,39,-99.99,,,0.00,weatherlink.com 1.10,2013-05-15 18:59:00,
2013-05-15 15:14:00,75.4,50.0,29.89,East,90,0.0,-999.0,41,-99.99,,,0.00,weatherlink.com 1.10,2013-05-15 19:14:00,
2013-05-15 15:29:00,75.6,51.0,29.89,ESE,106,0.0,-999.0,43,-99.99,,,0.00,weatherlink.com 1.10,2013-05-15 19:29:00,
2013-05-15 15:44:00,76.1,50.0,29.89,SW,228,1.0,-999.0,40,-99.99,,,0.00,weatherlink.com 1.10,2013-05-15 19:44:00,
2013-05-15 15:59:00,72.8,48.0,29.90,NW,311,0.0,-999.0,41,-99.99,,,0.00,weatherlink.com 1.10,2013-05-15 19:59:00,
2013-05-15 16:29:00,74.4,48.0,29.88,SSW,199,0.0,-999.0,39,-99.99,,,0.00,weatherlink.com 1.10,2013-05-15 20:29:00,
2013-05-15 16:44:00,73.9,49.0,29.88,SW,217,4.0,-999.0,41,-99.99,,,0.00,weatherlink.com 1.10,2013-05-15 20:44:00,
2013-05-15 16:59:00,72.5,45.0,29.89,SW,217,3.0,-999.0,38,-99.99,,,0.00,weatherlink.com 1.10,2013-05-15 20:59:00,
2013-05-15 17:14:00,72.7,43.0,29.88,SW,225,9.0,-999.0,35,-99.99,,,0.00,weatherlink.com 1.10,2013-05-15 21:14:00,
2013-05-15 17:29:00,72.7,43.0,29.88,SSW,208,7.0,-999.0,35,-99.99,,,0.00,weatherlink.com 1.10,2013-05-15 21:29:00,
2013-05-15 17:44:00,72.5,45.0,29.87,East,97,0.0,-999.0,37,-99.99,,,0.00,weatherlink.com 1.10,2013-05-15 21:44:00,
2013-05-15 17:59:00,72.1,43.0,29.88,NW,315,0.0,-999.0,35,-99.99,,,0.00,weatherlink.com 1.10,2013-05-15 21:59:00,
2013-05-15 18:14:00,71.8,43.0,29.88,South,182,3.0,-999.0,36,-99.99,,,0.00,weatherlink.com 1.10,2013-05-15 22:14:00,
2013-05-15 18:29:00,71.1,40.0,29.88,WSW,237,2.0,-999.0,33,-99.99,,,0.00,weatherlink.com 1.10,2013-05-15 22:29:00,
2013-05-15 18:44:00,70.8,39.0,29.88,SW,235,2.0,-999.0,31,-99.99,,,0.00,weatherlink.com 1.10,2013-05-15 22:44:00,
2013-05-15 18:59:00,69.9,38.0,29.88,NW,306,2.0,-999.0,31,-99.99,,,0.00,weatherlink.com 1.10,2013-05-15 22:59:00,
2013-05-15 19:14:00,68.8,39.0,29.88,WNW,284,4.0,-999.0,34,-99.99,,,0.00,weatherlink.com 1.10,2013-05-15 23:14:00,
2013-05-15 19:29:00,67.6,39.0,29.89,SW,232,0.0,-999.0,35,-99.99,,,0.00,weatherlink.com 1.10,2013-05-15 23:29:00,
2013-05-15 19:44:00,67.4,38.0,29.89,WSW,239,7.0,-999.0,34,-99.99,,,0.00,weatherlink.com 1.10,2013-05-15 23:44:00,
2013-05-15 19:59:00,67.3,39.0,29.89,WNW,288,4.0,-999.0,36,-99.99,,,0.00,weatherlink.com 1.10,2013-05-15 23:59:00,
2013-05-15 20:14:00,66.8,39.0,29.87,West,278,3.0,-999.0,36,-99.99,,,0.00,weatherlink.com 1.10,2013-05-16 00:14:00,
2013-05-15 20:29:00,66.3,38.0,29.88,WSW,244,4.0,-999.0,36,-99.99,,,0.00,weatherlink.com 1.10,2013-05-16 00:29:00,
2013-05-15 20:44:00,65.5,40.0,29.88,WSW,242,0.0,-999.0,39,-99.99,,,0.00,weatherlink.com 1.10,2013-05-16 00:44:00,
2013-05-15 20:59:00,64.8,41.0,29.88,West,275,2.0,-999.0,42,-99.99,,,0.00,weatherlink.com 1.10,2013-05-16 00:59:00,
2013-05-15 21:14:00,64.0,43.0,29.88,SW,228,5.0,-999.0,46,-99.99,,,0.00,weatherlink.com 1.10,2013-05-16 01:14:00,
2013-05-15 21:59:00,63.1,44.0,29.88,WSW,247,3.0,-999.0,50,-99.99,,,0.00,weatherlink.com 1.10,2013-05-16 01:59:00,
2013-05-15 22:29:00,61.6,44.0,29.88,WSW,240,0.0,-999.0,53,-99.99,,,0.00,weatherlink.com 1.10,2013-05-16 02:29:00,
2013-05-15 22:44:00,61.5,44.0,29.88,West,271,3.0,-999.0,53,-99.99,,,0.00,weatherlink.com 1.10,2013-05-16 02:44:00,
2013-05-15 22:59:00,61.5,44.0,29.88,SW,219,2.0,-999.0,54,-99.99,,,0.00,weatherlink.com 1.10,2013-05-16 02:59:00,
2013-05-15 23:14:00,61.3,46.0,29.87,WSW,242,5.0,-999.0,58,-99.99,,,0.00,weatherlink.com 1.10,2013-05-16 03:14:00,
2013-05-15 23:29:00,61.3,46.0,29.86,WSW,242,4.0,-999.0,58,-99.99,,,0.00,weatherlink.com 1.10,2013-05-16 03:29:00,
2013-05-15 23:44:00,61.0,47.0,29.87,WNW,282,4.0,-999.0,60,-99.99,,,0.00,weatherlink.com 1.10,2013-05-16 03:44:00,